| time (UTC) | temp F | wind direction | speed MPH | gust MPH | rain 1hr in | rain 24hr in | rain mn in | humidity % | barometer mb |
| 20260506073018 | 40 | 41 | 4.0 | 6.0 | 0.00 | 0.00 | 0.00 | 83 | 1014.3 |
| 20260506071516 | 40 | 360 | 3.0 | 10.0 | 0.00 | 0.00 | 0.00 | 83 | 1014.2 |
| 20260506061514 | 38 | 120 | 5.0 | 9.0 | 0.00 | 0.00 | 0.00 | 84 | 1013.5 |
| 20260506044551 | 39 | 86 | 4.0 | 6.0 | 0.00 | 0.00 | 0.00 | 77 | 1012.2 |
| 20260506043044 | 41 | 360 | 4.0 | 6.0 | 0.00 | 0.00 | 0.00 | 77 | 1012.8 |
| 20260506041544 | 42 | 44 | 5.0 | 9.0 | 0.00 | 0.00 | 0.00 | 76 | 1012.6 |
| 20260506040056 | 42 | 50 | 5.0 | 7.0 | 0.00 | 0.00 | 0.00 | 76 | 1012.8 |
| 20260506034538 | 42 | 61 | 5.0 | 10.0 | 0.00 | 0.00 | 0.00 | 76 | 1012.2 |
| 20260506033034 | 42 | 79 | 7.0 | 11.0 | 0.00 | 0.00 | 0.00 | 75 | 1010.8 |
| 20260506031542 | 42 | 97 | 8.0 | 11.0 | 0.00 | 0.00 | 0.00 | 74 | 1010.0 |
| 20260506030026 | 43 | 360 | 7.0 | 11.0 | 0.00 | 0.00 | 0.00 | 72 | 1009.9 |
| 20260506024526 | 44 | 360 | 6.0 | 12.0 | 0.00 | 0.00 | 0.00 | 70 | 1009.6 |
| 20260506023021 | 45 | 13 | 8.0 | 11.0 | 0.00 | 0.00 | 0.00 | 68 | 1009.5 |
| 20260506021517 | 46 | 82 | 8.0 | 13.0 | 0.00 | 0.00 | 0.00 | 67 | 1009.5 |
| 20260506020013 | 47 | 60 | 9.0 | 13.0 | 0.00 | 0.00 | 0.00 | 65 | 1009.1 |
| 20260506014513 | 48 | 73 | 10.0 | 17.0 | 0.00 | 0.00 | 0.00 | 62 | 1008.7 |
| 20260506013006 | 49 | 11 | 12.0 | 17.0 | 0.00 | 0.00 | 0.00 | 60 | 1008.6 |
| 20260506011504 | 51 | 16 | 13.0 | 19.0 | 0.00 | 0.00 | 0.00 | 58 | 1008.6 |
| 20260506010011 | 51 | 12 | 11.0 | 17.0 | 0.00 | 0.00 | 0.00 | 58 | 1008.5 |
| 20260506004506 | 52 | 11 | 15.0 | 21.0 | 0.00 | 0.00 | 0.00 | 56 | 1008.1 |
| 20260506003003 | 53 | 14 | 10.0 | 18.0 | 0.00 | 0.00 | 0.00 | 56 | 1008.7 |
| 20260506001600 | 53 | 15 | 8.0 | 15.0 | 0.00 | 0.00 | 0.00 | 55 | 1008.7 |
| 20260505234606 | 56 | 67 | 15.0 | 19.0 | 0.00 | 0.00 | 0.00 | 51 | 1007.7 |
| 20260505233110 | 56 | 76 | 12.0 | 19.0 | 0.00 | 0.00 | 0.00 | 52 | 1007.5 |
| 20260505231605 | 56 | 55 | 11.0 | 17.0 | 0.00 | 0.00 | 0.00 | 52 | 1007.5 |
| 20260505230056 | 56 | 78 | 9.0 | 19.0 | 0.00 | 0.00 | 0.00 | 52 | 1007.6 |
| 20260505224556 | 56 | 117 | 14.0 | 19.0 | 0.00 | 0.00 | 0.00 | 52 | 1007.6 |
| 20260505223056 | 54 | 12 | 11.0 | 16.0 | 0.00 | 0.00 | 0.00 | 54 | 1007.9 |
| 20260505221554 | 54 | 14 | 12.0 | 17.0 | 0.00 | 0.00 | 0.00 | 54 | 1007.7 |
| 20260505220053 | 54 | 15 | 11.0 | 16.0 | 0.00 | 0.00 | 0.00 | 54 | 1007.6 |
| 20260505214555 | 54 | 19 | 9.0 | 16.0 | 0.00 | 0.00 | 0.00 | 53 | 1008.0 |
| 20260505213051 | 55 | 16 | 10.0 | 16.0 | 0.00 | 0.00 | 0.00 | 52 | 1008.1 |
| 20260505211605 | 55 | 17 | 10.0 | 16.0 | 0.00 | 0.00 | 0.00 | 51 | 1007.9 |
| 20260505210050 | 54 | 15 | 7.0 | 19.0 | 0.00 | 0.00 | 0.00 | 53 | 1007.9 |
| 20260505204549 | 54 | 360 | 9.0 | 18.0 | 0.00 | 0.00 | 0.00 | 53 | 1008.4 |
| 20260505203049 | 54 | 15 | 12.0 | 19.0 | 0.00 | 0.00 | 0.00 | 51 | 1008.2 |
| 20260505201551 | 54 | 12 | 15.0 | 21.0 | 0.00 | 0.00 | 0.00 | 51 | 1008.0 |
| 20260505200049 | 54 | 11 | 13.0 | 17.0 | 0.00 | 0.00 | 0.00 | 51 | 1008.2 |
| 20260505194600 | 54 | 11 | 11.0 | 19.0 | 0.00 | 0.00 | 0.00 | 51 | 1008.4 |
| 20260505193045 | 54 | 11 | 14.0 | 20.0 | 0.00 | 0.00 | 0.00 | 52 | 1008.3 |
| 20260505191545 | 55 | 11 | 13.0 | 20.0 | 0.00 | 0.00 | 0.00 | 51 | 1008.4 |
| 20260505190047 | 54 | 12 | 14.0 | 21.0 | 0.00 | 0.00 | 0.00 | 51 | 1008.0 |
| 20260505184544 | 54 | 11 | 12.0 | 22.0 | 0.00 | 0.00 | 0.00 | 52 | 1008.4 |
| 20260505183044 | 54 | 11 | 14.0 | 22.0 | 0.00 | 0.00 | 0.00 | 52 | 1008.8 |
| 20260505181548 | 53 | 10 | 14.0 | 23.0 | 0.00 | 0.00 | 0.00 | 53 | 1009.0 |
| 20260505180041 | 54 | 11 | 15.0 | 27.0 | 0.00 | 0.00 | 0.00 | 52 | 1008.4 |
| 20260505174638 | 54 | 11 | 17.0 | 22.0 | 0.00 | 0.00 | 0.00 | 53 | 1008.0 |
| 20260505173036 | 53 | 12 | 15.0 | 24.0 | 0.00 | 0.00 | 0.00 | 55 | 1008.1 |
| 20260505171538 | 52 | 12 | 17.0 | 23.0 | 0.00 | 0.00 | 0.00 | 56 | 1008.1 |
| 20260505170036 | 52 | 12 | 15.0 | 22.0 | 0.00 | 0.00 | 0.00 | 57 | 1008.1 |
| 20260505164535 | 51 | 13 | 16.0 | 22.0 | 0.00 | 0.00 | 0.00 | 60 | 1007.9 |
| 20260505163040 | 50 | 13 | 17.0 | 25.0 | 0.00 | 0.00 | 0.00 | 60 | 1007.9 |
| 20260505161536 | 50 | 11 | 17.0 | 23.0 | 0.00 | 0.00 | 0.00 | 60 | 1008.0 |
| 20260505153030 | 51 | 17 | 13.0 | 21.0 | 0.00 | 0.00 | 0.00 | 57 | 1007.8 |
| 20260505151528 | 51 | 17 | 16.0 | 25.0 | 0.00 | 0.00 | 0.00 | 57 | 1007.4 |
| 20260505124514 | 50 | 11 | 16.0 | 23.0 | 0.00 | 0.00 | 0.00 | 58 | 1004.9 |
| 20260505123008 | 50 | 11 | 18.0 | 26.0 | 0.00 | 0.00 | 0.00 | 58 | 1004.4 |
| 20260505121506 | 50 | 11 | 15.0 | 25.0 | 0.00 | 0.00 | 0.00 | 58 | 1004.3 |
| 20260505120004 | 50 | 10 | 17.0 | 24.0 | 0.00 | 0.00 | 0.00 | 58 | 1003.8 |
| 20260505114503 | 50 | 11 | 16.0 | 23.0 | 0.00 | 0.00 | 0.00 | 58 | 1003.7 |
| 20260505113107 | 50 | 10 | 20.0 | 28.0 | 0.00 | 0.00 | 0.00 | 58 | 1003.4 |
| 20260505111558 | 50 | 11 | 20.0 | 28.0 | 0.00 | 0.00 | 0.00 | 58 | 1003.2 |
| 20260505110116 | 50 | 11 | 19.0 | 25.0 | 0.00 | 0.00 | 0.00 | 58 | 1003.4 |
| 20260505101550 | 51 | 9 | 17.0 | 27.0 | 0.00 | 0.00 | 0.00 | 60 | 1003.1 |
| 20260505100048 | 52 | 11 | 20.0 | 32.0 | 0.00 | 0.00 | 0.00 | 60 | 1002.8 |
| 20260505094543 | 52 | 11 | 18.0 | 29.0 | 0.00 | 0.00 | 0.00 | 61 | 1002.1 |
| 20260505093039 | 53 | 9 | 15.0 | 23.0 | 0.00 | 0.00 | 0.00 | 63 | 1002.0 |
| 20260505091537 | 54 | 11 | 16.0 | 27.0 | 0.00 | 0.00 | 0.00 | 64 | 1001.6 |
| 20260505090037 | 54 | 9 | 18.0 | 25.0 | 0.00 | 0.00 | 0.00 | 64 | 1000.8 |
| 20260505084529 | 55 | 10 | 16.0 | 27.0 | 0.00 | 0.00 | 0.00 | 65 | 1000.6 |
| 20260505083024 | 56 | 11 | 17.0 | 27.0 | 0.00 | 0.00 | 0.00 | 63 | 1000.4 |
| 20260505081529 | 57 | 13 | 16.0 | 22.0 | 0.00 | 0.00 | 0.00 | 59 | 999.9 |